sat.trackr.live / text

‹ back to catalog

STARLINK-11503 [DTC]

NORAD 63142 · 2025-043L

PAYLOAD ACTIVE UNKNOWN

§ Identity

Operator
Country
US
Launch date
2025-03-03
Launch site
AFETR
Launch vehicle
Mass (kg)
RCS (m²)

Purposes: comms

External: N2YO · Heavens-Above · Gunter

§ Orbital elements

Epoch: 2026-09-20T17:49:59.639232Z

Period
91.67 min
Inclination
43.0003°
Eccentricity
0.0002044
Mean motion
15.70893300 rev/d
Perigee alt
355.0 km
Apogee alt
357.7 km
Semi-major
6,734.5 km
B*
1.4219e-3
RAAN
154.5764°
Arg perigee
254.5437°
Mean anomaly
105.5205°
Rev number
8,997

§ Raw data

STARLINK-11503 [DTC]1 63142U 25043L   26263.74305138  .00186576  00000+0  14219-2 0  99912 63142  43.0003 154.5764 0002044 254.5437 105.5205 15.70893300 89977

JSON: /api/v1/satellites/63142 · /tle

For live sub-satellite position, see the globe view (requires WebGL).

§ Visibility from observer

Set your observer location to see the next 7 days of passes ≥ 10°. The values pass through the URL so the page stays shareable.

No JS? Fill the form by hand. The geolocation button needs JavaScript.